Wind_Speed
17 16 16 16 16 15 15 15 15 15 15 15 14 13 12 11 10 8 7 7 7 7 7 7 7 7 8 7 7 7 7 7 8 8 6 5 5 6 7 8 8 9 9 9 9 9 9 10 10 11 11 11 11 11 12 13 13 15 16 19 20 20 18 13 11 11 14 15 15 16 16 17 18 18 19 22 22 18 16 15 17 18 19 19 19 19 19 20
17 17 17 17 16 16 16 15 15 14 14 13 12 10 9 8 7 6 6 6 7 7 8 8 8 8 9 9 9 9 10 9 10 10 7 6 7 9 10 10 11 10 11 11 11 11 11 11 12 13 13 12 12 12 13 14 14 15 16 18 19 19 14 10 12 14 15 17 17 16 16 18 21 21 22 25 24 22 20 19 19 19 20 20 20 20 20 20
18 17 17 16 16 15 15 14 13 12 11 10 8 7 6 6 5 6 6 7 7 8 8 9 9 9 10 10 11 12 12 13 12 10 8 9 12 12 13 12 12 12 12 12 12 12 12 13 14 15 15 13 13 13 13 14 15 17 17 19 19 17 14 12 15 16 18 21 21 19 20 22 24 25 25 26 26 25 23 21 20 19 20 20 21 21 21 21
17 16 16 15 14 13 12 11 10 9 8 7 6 5 5 5 6 7 7 8 8 9 9 10 11 11 12 13 13 14 15 15 11 8 10 13 14 13 13 13 13 13 13 13 13 14 14 15 15 15 16 14 12 12 14 15 17 18 20 20 18 15 15 15 17 18 21 24 24 25 25 26 28 27 25 24 23 23 23 22 20 18 18 20 20 20 20 20
15 15 14 13 12 11 10 8 7 6 5 5 4 5 5 6 7 8 9 9 10 10 11 12 12 13 14 14 14 14 16 13 9 10 13 14 13 12 12 13 13 13 13 13 14 15 15 15 16 16 16 14 12 13 15 16 17 19 22 21 19 17 16 16 19 21 24 26 26 28 28 29 28 26 24 21 20 20 22 22 20 18 19 19 19 20 21 22
13 12 11 10 9 8 6 5 4 4 4 4 5 6 7 8 8 9 10 11 12 13 13 13 13 13 13 13 13 14 15 12 11 13 12 11 12 13 12 13 13 14 14 14 14 15 16 16 16 15 15 13 13 14 13 14 18 21 22 21 20 19 16 17 20 22 25 26 27 27 29 29 27 24 21 20 19 20 21 22 21 21 22 22 22 23 24 25
11 9 8 7 6 5 4 3 4 4 5 6 7 7 8 9 10 11 12 13 13 14 14 13 13 12 12 12 12 14 15 12 12 11 10 12 12 12 13 13 14 13 12 13 14 14 15 15 15 15 15 14 13 12 10 10 16 21 22 22 22 20 19 21 23 25 25 26 27 28 29 29 26 23 22 21 20 21 21 22 24 24 25 25 25 25 26 26
8 7 5 5 4 3 4 5 5 6 7 8 9 10 11 12 13 13 14 14 13 13 13 12 11 11 11 11 11 13 14 12 10 8 10 12 12 12 12 12 12 12 12 13 13 14 14 15 16 16 16 16 15 12 11 12 15 19 21 20 22 22 23 26 26 26 27 27 27 27 27 25 24 22 21 21 21 21 21 23 25 26 26 26 26 27 27 27
5 4 3 3 4 5 5 6 7 8 9 10 11 12 13 13 13 13 13 12 12 11 10 9 9 9 10 10 10 12 12 10 9 10 12 12 12 12 11 11 11 11 12 13 12 13 13 13 15 16 15 15 15 13 13 16 17 19 20 21 23 25 26 27 25 24 25 25 25 24 24 23 22 22 21 22 22 22 22 23 24 26 26 27 28 28 29 29
3 3 4 4 5 6 7 8 9 10 11 12 12 12 12 12 12 11 10 10 9 9 8 8 9 9 9 10 10 11 10 9 11 12 12 12 12 13 13 13 13 12 12 13 13 12 11 11 12 13 14 14 14 13 14 18 19 20 21 23 24 25 25 25 25 25 25 26 24 23 23 23 23 22 22 24 24 23 23 23 25 26 26 27 28 29 29 30
4 5 5 6 7 8 9 10 11 11 11 12 12 11 11 11 11 10 9 9 9 9 9 9 9 9 9 9 10 9 9 10 11 11 12 13 13 14 15 14 13 13 12 13 13 11 10 11 11 11 12 13 13 13 15 18 20 21 21 22 21 20 22 23 25 25 24 24 23 22 21 22 22 22 24 26 25 24 23 23 24 25 26 27 28 28 29 29
6 7 8 8 9 10 10 10 11 11 11 10 10 10 10 10 10 9 9 9 9 8 8 8 8 8 9 9 8 8 9 10 10 12 13 13 13 13 13 12 12 12 12 12 12 10 10 11 11 11 11 13 13 13 14 15 17 17 18 19 18 18 19 20 21 23 22 21 21 20 18 19 21 23 25 26 26 24 23 23 24 25 26 27 27 27 28 28
8 9 9 10 10 10 10 10 10 10 9 8 9 9 9 9 9 10 10 9 8 8 7 7 7 7 7 8 8 8 9 10 10 12 13 13 12 10 10 11 11 10 10 10 10 10 10 11 11 12 12 12 13 13 14 14 16 17 17 18 18 17 16 15 16 18 19 19 19 16 14 19 22 23 25 26 26 24 23 23 23 23 24 25 25 26 26 27
9 9 9 9 9 9 9 9 8 7 7 7 7 8 9 9 10 11 11 9 8 8 7 6 6 6 8 8 7 8 10 11 11 11 13 13 12 11 10 10 10 9 9 8 8 8 8 9 10 10 12 12 13 13 14 14 15 15 15 15 14 13 14 15 14 13 15 17 17 14 15 21 23 22 24 24 24 22 21 21 20 20 21 21 22 22 23 24
9 9 9 9 9 8 7 6 5 5 6 6 6 7 9 10 11 11 10 10 9 7 7 6 7 8 7 6 6 9 11 12 11 11 12 11 12 12 10 9 10 10 10 9 9 8 7 8 8 9 9 10 10 11 12 12 11 11 12 12 11 11 12 14 13 13 14 13 14 13 15 20 21 22 24 24 23 21 19 20 19 18 18 18 18 19 20 21
8 8 8 7 6 5 4 4 5 5 5 5 6 8 9 10 11 11 10 11 9 7 7 6 8 9 5 6 9 10 12 13 12 12 11 11 11 10 10 9 10 10 10 10 8 7 7 7 7 7 6 5 6 7 9 9 7 7 8 8 10 11 10 11 11 13 12 11 13 15 16 18 19 21 24 23 23 21 19 19 17 17 16 17 17 18 19 19
7 7 7 6 5 5 5 5 5 5 5 6 7 8 10 11 12 10 10 10 8 7 7 6 10 8 4 7 11 11 14 14 14 15 13 12 11 10 10 10 10 10 10 9 6 6 7 7 6 6 6 5 5 7 8 7 6 5 5 7 9 11 14 17 16 15 13 12 16 18 19 19 19 21 23 23 24 22 19 18 17 17 18 18 18 18 17 17
6 6 6 6 6 6 6 5 5 6 6 7 8 9 10 11 12 10 9 10 9 8 7 7 10 7 5 11 14 14 16 15 15 16 14 13 12 11 11 11 11 11 9 7 6 7 8 7 7 6 6 6 6 6 7 7 9 9 11 15 16 18 22 23 19 15 13 14 17 18 19 20 20 21 23 24 25 23 21 20 19 19 19 19 18 17 16 16
6 6 6 6 6 6 6 6 6 7 7 8 9 10 11 11 11 10 10 11 9 8 8 9 11 10 11 15 16 16 17 16 15 14 13 13 13 13 12 12 11 11 10 9 10 10 9 9 9 8 7 6 6 7 8 10 14 17 18 21 22 23 23 20 16 13 12 13 15 16 17 19 20 22 24 25 26 25 23 22 20 19 17 16 15 15 15 15
6 6 6 6 6 6 6 7 7 8 8 9 10 10 10 10 10 10 10 9 6 9 11 11 12 13 13 15 15 15 16 15 14 14 14 13 13 13 12 11 11 11 11 12 11 10 9 9 8 8 8 8 9 11 13 15 18 20 21 21 20 19 17 13 10 10 11 13 14 15 16 18 19 21 23 24 25 25 24 22 19 16 14 13 14 14 14 14
6 6 6 7 7 7 7 8 9 9 10 10 9 9 9 8 8 8 7 5 4 10 13 11 12 13 13 14 14 13 13 13 13 14 15 14 14 13 11 12 12 12 12 11 10 9 8 7 6 9 10 11 12 13 15 16 16 17 17 16 14 12 11 9 7 8 10 12 14 15 16 17 19 20 21 23 24 25 23 19 15 14 13 13 13 13 13 12
7 7 7 7 8 8 9 9 9 10 10 10 9 9 8 7 8 7 5 3 5 11 13 12 13 14 14 15 14 12 12 12 13 14 14 14 14 13 13 12 11 11 11 10 10 9 6 5 7 12 14 14 14 15 15 14 12 12 11 11 11 10 9 9 7 7 9 12 14 16 17 18 19 20 21 22 22 22 21 19 16 14 13 11 10 10 10 9
7 7 8 8 9 9 9 9 9 9 9 9 9 9 8 7 7 6 5 2 4 9 14 15 14 13 14 15 15 14 12 14 15 15 15 15 15 14 13 13 12 12 11 12 12 9 7 8 12 16 16 15 13 13 13 10 8 9 10 10 10 10 10 10 10 10 12 15 16 16 18 19 19 19 19 18 19 20 19 17 14 11 9 8 8 8 7 7
7 8 8 9 9 9 9 9 8 8 8 8 8 8 7 7 6 5 4 1 3 8 15 16 14 15 16 16 17 14 13 16 17 16 17 16 15 15 14 13 12 12 12 14 12 9 11 15 17 16 14 12 11 11 11 10 9 13 15 13 11 12 13 13 14 15 16 18 21 20 16 17 19 18 17 16 14 14 13 10 8 7 7 6 6 6 6 6
7 8 9 10 10 9 9 9 8 8 8 7 7 7 6 6 5 4 2 3 3 10 16 16 15 16 17 17 18 14 13 17 18 18 18 17 16 15 15 14 13 13 14 13 10 9 15 19 17 14 12 12 12 11 12 14 17 18 16 13 11 12 15 16 17 19 17 16 20 17 10 8 13 15 13 10 8 8 7 6 5 5 5 4 4 5 5 5
8 9 11 11 11 10 9 9 8 7 7 7 7 7 6 5 4 2 2 4 5 13 16 16 15 17 17 17 17 14 13 17 18 18 18 17 16 15 14 13 13 14 12 9 8 10 17 19 17 15 13 12 11 12 15 18 20 18 14 13 13 15 17 18 18 19 16 13 13 13 10 7 8 10 8 6 5 6 5 4 3 3 3 4 4 4 5 4
8 10 12 12 11 11 10 9 8 7 7 7 7 6 5 5 3 2 3 4 7 14 16 16 16 17 18 17 17 15 13 16 17 16 17 17 16 15 14 13 14 13 10 9 11 13 15 17 16 14 12 11 11 15 20 19 17 15 15 16 17 18 19 19 18 19 19 17 17 17 17 13 8 7 7 6 5 3 2 1 2 3 3 4 4 4 4 4
9 11 12 12 12 11 10 9 8 8 8 7 7 6 5 4 3 3 4 3 6 13 14 15 15 16 18 17 17 16 15 15 15 15 17 16 16 16 13 14 14 11 10 12 13 14 16 16 15 13 12 12 15 20 21 17 16 17 18 19 21 21 20 20 19 20 18 16 18 17 15 10 3 3 4 4 6 4 0 2 4 5 5 5 5 4 4 4
9 11 13 13 12 11 10 9 8 8 8 7 6 5 5 5 4 4 4 2 7 13 13 13 13 13 15 14 14 16 15 16 16 16 16 15 17 16 12 13 14 11 13 15 13 14 16 15 14 13 12 14 17 21 19 16 17 18 19 20 20 18 17 18 17 15 10 7 12 15 12 11 0 1 4 3 7 5 2 4 6 6 6 7 6 6 5 7
9 11 13 13 12 12 11 9 8 8 7 7 6 4 5 5 3 4 4 3 7 11 11 11 12 12 12 11 13 15 14 16 16 15 15 14 16 15 11 11 12 11 14 15 14 15 15 12 11 11 13 16 18 19 18 18 19 18 19 20 19 15 13 14 11 5 3 3 6 6 6 10 2 2 6 6 7 6 4 5 7 8 8 8 7 8 9 10
10 12 13 13 12 10 9 8 8 8 7 6 5 4 4 5 5 5 4 5 6 8 10 10 11 12 13 13 15 15 14 16 16 15 17 17 17 18 16 15 16 16 17 19 19 18 14 10 9 11 15 18 18 19 19 19 17 16 15 17 18 15 11 9 7 4 1 2 4 8 5 5 2 3 7 7 7 6 6 6 7 8 9 9 9 11 12 14
10 12 13 13 11 9 8 8 8 7 7 6 4 4 3 5 8 7 4 4 5 7 9 10 12 13 14 15 17 17 14 16 18 17 20 21 22 25 24 23 26 24 22 24 23 18 14 10 9 14 17 18 21 23 22 17 14 14 16 18 16 10 8 7 5 3 1 2 8 14 15 8 3 2 5 6 6 7 7 6 6 7 8 9 11 13 14 16
10 13 13 12 10 9 8 8 8 8 7 6 4 4 3 5 7 7 6 5 5 8 8 9 13 13 13 14 16 18 16 17 19 17 18 20 21 23 23 23 26 24 21 22 20 18 14 9 11 17 16 17 24 27 24 18 15 18 20 18 12 5 4 3 3 4 3 7 17 23 16 6 3 2 5 5 6 7 6 5 5 7 8 10 12 14 17 18
10 12 12 10 9 8 8 8 8 8 7 6 5 3 5 8 6 5 8 8 8 9 7 8 11 11 13 16 17 19 16 16 19 17 16 17 19 22 21 22 25 23 22 20 17 16 12 7 13 18 14 16 24 26 22 18 17 18 17 14 14 9 3 1 2 2 4 11 20 19 9 3 4 4 5 5 5 5 6 6 6 8 10 12 15 17 20 22
10 11 10 9 7 8 8 8 8 7 7 8 6 5 8 9 6 6 8 7 8 10 7 7 10 11 13 16 16 18 16 14 16 16 15 18 20 23 22 23 25 25 23 19 14 12 12 11 13 15 14 16 23 22 19 18 17 16 16 17 19 14 6 5 6 8 10 11 12 8 4 3 5 7 7 6 5 6 8 9 9 10 12 15 18 21 24 26
9 9 7 7 8 8 8 8 8 7 8 7 4 9 14 11 7 7 8 7 8 11 9 6 10 12 14 15 15 16 15 13 14 14 15 18 19 20 21 23 25 25 23 18 12 10 13 14 11 11 13 17 21 17 15 19 18 15 17 20 19 11 5 7 9 12 11 5 3 2 3 5 4 6 8 7 6 8 9 9 11 12 15 19 22 26 28 29
7 7 7 7 8 7 8 9 7 7 8 5 5 13 17 12 10 9 8 8 8 10 11 9 11 14 15 16 16 17 16 13 13 14 14 16 17 17 20 22 23 23 20 16 12 10 13 14 11 12 14 17 16 10 11 18 18 15 15 18 16 5 5 10 8 8 7 2 4 4 3 5 4 5 9 9 9 9 9 10 12 14 18 23 27 30 31 32
5 6 7 7 7 8 10 9 8 9 8 5 10 17 16 12 11 10 9 9 9 10 12 13 13 14 15 16 17 18 17 14 14 15 13 16 17 16 18 20 20 19 17 15 13 11 12 12 12 16 16 15 11 7 11 16 14 14 13 15 15 5 4 14 9 3 3 1 4 5 5 7 7 8 10 10 10 11 11 13 15 19 23 28 32 33 33 33
5 6 6 7 8 9 9 9 11 11 6 6 14 17 14 13 12 11 10 10 9 10 13 14 13 13 15 16 17 18 16 14 15 15 14 16 16 14 16 19 18 16 15 15 13 12 11 8 9 17 16 12 11 10 13 13 11 14 16 18 18 8 6 14 9 3 3 1 2 5 6 6 8 11 13 13 13 13 14 18 21 25 30 33 35 35 34 34
6 6 6 9 9 8 9 12 13 9 5 11 17 16 14 14 12 12 11 11 11 11 13 14 13 13 14 15 16 17 15 12 14 14 13 16 16 14 15 18 16 14 14 14 14 14 12 6 10 17 15 12 13 14 12 11 13 19 21 22 21 16 14 15 10 5 3 1 1 3 5 7 11 14 14 13 13 15 19 23 27 31 34 35 35 35 34 34
7 6 8 10 9 9 12 13 10 9 12 17 18 16 15 13 12 13 12 12 12 12 12 13 13 14 15 15 15 16 13 11 12 14 13 16 16 14 15 16 14 13 14 13 14 16 12 6 13 19 16 14 15 12 7 8 14 20 21 20 19 19 18 13 6 5 4 4 4 4 5 11 15 13 11 12 15 20 24 28 32 34 34 33 33 33 34 35
7 7 10 10 11 12 12 10 11 13 17 18 16 16 14 12 13 13 13 12 12 12 12 12 13 14 15 15 15 15 13 10 11 13 14 15 15 14 15 15 13 13 15 14 16 18 12 7 14 17 14 13 12 8 6 9 16 20 20 19 16 16 15 9 5 8 9 9 9 7 5 10 14 11 12 17 20 24 29 32 34 33 32 31 32 33 35 37
7 10 12 12 13 13 10 10 14 15 15 16 16 15 14 12 12 12 12 13 12 12 11 13 14 13 15 15 14 14 14 11 10 13 15 14 14 14 14 13 13 14 15 14 16 17 11 9 14 14 12 12 10 7 7 10 15 19 19 19 17 16 18 14 10 10 10 8 7 4 3 8 14 16 20 23 25 29 33 34 34 32 31 31 33 35 37 40
9 12 13 12 14 12 8 11 15 14 15 16 15 14 14 13 12 12 12 13 13 13 12 13 14 13 14 15 14 14 14 11 9 11 14 14 13 14 13 12 12 13 14 14 16 16 12 10 13 11 9 10 10 8 9 12 15 17 18 20 19 19 18 14 8 6 5 6 5 2 5 14 20 23 25 26 29 34 35 34 33 32 32 33 35 37 40 42
11 13 14 14 14 10 8 13 14 13 15 15 13 14 13 13 13 12 13 14 14 14 13 13 14 13 15 15 14 14 14 12 10 10 13 13 13 13 12 10 11 12 14 14 15 15 12 11 12 8 4 5 7 9 13 17 18 17 18 20 21 21 14 6 4 4 4 7 10 10 15 24 25 24 26 29 33 35 34 32 32 31 33 35 37 40 43 43
10 11 13 14 14 11 12 15 15 14 15 13 13 14 13 12 13 13 13 14 15 15 13 13 13 13 14 15 14 14 14 12 11 11 12 12 12 12 10 10 11 12 13 14 16 15 12 10 11 9 7 9 11 12 14 16 17 19 19 19 21 18 9 3 4 7 9 12 18 18 19 25 28 25 27 31 32 32 31 30 31 32 34 36 38 42 44 43
11 12 11 11 12 13 14 15 14 14 14 13 14 14 12 12 12 13 14 14 15 16 14 13 14 14 14 15 13 13 14 12 11 11 11 12 12 11 9 9 10 12 13 14 15 14 11 10 10 10 12 13 12 11 13 15 18 20 20 20 19 13 5 5 8 11 12 12 18 21 21 25 31 29 27 29 30 30 31 31 32 34 36 38 41 44 46 44
14 14 14 12 12 13 14 14 14 14 13 13 14 14 13 12 12 12 14 14 15 16 15 14 15 15 15 15 13 13 13 12 11 11 11 11 12 10 10 9 9 12 14 14 15 15 11 10 11 13 14 12 9 10 14 18 19 19 19 19 15 9 8 10 11 11 11 13 19 26 28 30 32 29 26 28 30 31 32 32 34 36 38 41 44 46 46 46
14 15 15 13 13 14 14 14 14 14 13 13 14 14 13 13 13 13 14 15 15 15 15 14 14 14 15 14 13 13 13 11 11 10 10 11 10 9 10 8 9 12 14 14 16 15 11 11 13 16 17 14 10 12 17 19 19 18 17 14 11 10 12 13 12 11 13 19 27 31 33 33 29 26 26 29 30 32 33 34 36 38 40 44 46 47 46 46
14 16 15 13 14 15 15 14 14 13 13 13 13 13 13 13 14 14 14 15 15 15 14 13 13 14 13 12 13 14 13 12 11 10 10 10 9 9 9 9 10 12 14 15 15 14 13 12 12 16 20 16 13 16 20 19 17 14 11 9 11 14 14 12 12 12 16 25 31 31 34 32 25 23 27 30 31 34 35 36 38 40 42 45 46 46 46 46
15 16 15 12 13 15 14 13 13 12 12 13 14 14 14 14 14 14 14 15 15 14 14 13 13 14 13 13 13 13 13 12 11 10 10 9 9 9 9 9 11 12 13 15 15 15 14 13 13 17 19 18 17 20 22 20 14 11 8 9 13 16 14 13 13 15 21 30 32 30 31 28 24 26 30 31 32 35 37 38 40 42 44 45 46 46 47 47
16 17 16 12 12 15 13 12 13 12 12 13 14 14 14 14 14 14 15 15 15 14 13 13 14 13 13 13 13 12 12 11 10 10 9 9 9 9 8 10 11 12 13 14 15 16 15 14 16 15 17 20 21 21 25 20 9 7 10 13 15 16 16 16 17 19 25 30 30 30 28 25 26 29 32 33 34 36 38 40 42 43 45 45 46 47 48 49
Wind_Direction
106 104 102 101 101 101 102 102 103 103 102 101 99 97 94 90 85 78 69 56 45 34 25 17 10 4 359 353 348 345 343 341 340 337 320 304 321 329 330 329 323 322 317 315 312 308 303 293 285 274 268 266 262 260 257 255 252 247 239 235 245 257 261 269 272 267 273 274 262 253 253 259 268 276 284 289 288 282 273 262 254 251 253 254 254 252 251 252
107 105 104 103 102 102 103 103 103 103 101 99 95 92 86 79 70 56 42 27 17 8 2 356 351 347 342 337 333 330 326 327 330 321 300 297 316 320 318 314 313 315 311 309 307 304 300 292 286 278 269 261 257 256 255 257 256 254 252 249 256 266 273 274 259 256 268 274 273 271 269 272 277 283 286 288 286 282 274 263 254 249 250 251 250 250 250 251
108 106 105 104 103 103 102 101 99 97 94 89 83 75 64 51 37 21 9 2 355 350 345 341 336 331 327 324 320 318 314 318 321 308 292 304 311 310 309 308 307 306 303 301 300 297 294 288 283 279 275 268 266 261 258 259 259 261 260 260 268 278 280 265 252 255 264 273 280 283 282 279 282 287 287 286 286 283 274 265 261 256 255 254 252 251 251 251
108 107 106 105 104 102 100 98 94 89 82 72 61 47 31 14 4 353 347 342 336 333 329 327 324 320 317 314 313 311 309 315 314 290 290 302 304 304 303 303 300 297 295 293 293 292 291 288 283 280 276 274 270 257 253 256 259 262 262 266 278 284 277 261 254 256 259 268 276 282 285 283 282 286 286 285 282 277 272 269 264 261 260 257 254 250 249 248
107 106 104 104 102 101 98 94 88 79 65 47 26 9 357 346 340 335 331 327 324 322 320 320 318 315 313 312 312 308 306 311 306 289 296 301 300 301 299 296 294 291 290 288 287 287 285 282 279 276 271 272 266 251 251 256 261 264 268 277 284 281 274 265 260 259 260 264 270 276 281 282 281 281 280 278 272 265 265 266 264 260 257 252 247 245 245 245
104 103 101 99 96 94 88 78 63 44 19 2 347 338 331 327 324 322 320 319 319 317 318 318 315 314 312 312 311 305 304 308 305 299 297 299 301 299 295 293 291 290 289 287 284 280 278 277 276 271 264 264 259 253 254 253 256 262 271 282 284 279 272 270 270 268 267 268 271 275 280 282 281 278 274 269 262 256 257 262 262 258 254 250 247 247 250 252
99 96 94 89 82 71 55 37 15 356 343 335 329 325 322 321 319 318 318 317 316 315 315 313 312 313 309 311 309 303 308 310 306 298 292 299 302 297 295 295 293 292 289 285 282 278 278 278 275 267 260 259 253 253 256 249 252 260 270 277 279 275 269 272 277 273 271 272 273 276 280 281 279 275 271 265 259 255 254 257 258 256 255 255 255 256 257 259
91 86 81 70 53 32 11 355 346 338 332 328 325 324 321 320 317 316 316 314 313 312 312 312 313 313 312 314 311 308 315 317 311 303 302 308 307 303 302 299 296 293 290 287 286 283 281 280 276 272 269 268 262 258 256 253 253 260 266 268 268 268 267 271 273 270 269 271 274 277 278 277 275 273 269 263 260 257 254 254 257 257 256 256 257 259 260 261
79 67 51 34 14 358 347 338 333 329 327 327 324 322 319 317 315 314 313 313 313 315 318 320 321 321 321 321 319 319 321 321 324 319 317 318 317 315 313 307 301 297 296 294 291 289 287 285 284 282 280 279 274 265 253 252 253 254 256 255 257 262 267 272 273 273 274 275 277 276 274 271 270 268 263 259 258 256 254 255 257 259 259 257 257 259 260 263
43 18 3 354 343 334 328 324 322 322 323 323 322 320 318 317 317 318 320 321 322 324 325 324 325 325 323 324 325 326 325 326 328 324 322 323 322 321 318 313 306 301 299 297 296 297 293 288 285 282 281 279 274 265 251 250 255 257 257 257 261 267 272 274 276 277 279 281 279 274 270 267 265 262 258 259 258 256 255 255 256 258 258 258 258 259 261 263
350 339 334 328 324 320 318 318 319 321 322 321 322 323 325 326 326 328 328 327 325 323 321 319 319 317 319 327 328 326 328 331 329 325 324 324 323 318 313 312 308 304 299 296 298 298 290 283 280 277 278 278 276 270 258 256 261 265 266 268 270 272 272 272 273 275 278 279 278 275 271 265 262 258 257 260 260 259 257 255 256 256 256 257 258 259 261 263
329 324 320 319 318 317 316 318 320 322 325 328 331 333 337 340 341 345 343 339 335 330 325 319 317 316 322 330 329 330 335 336 331 327 327 326 324 317 312 313 312 308 303 299 301 298 288 282 279 276 275 279 283 279 272 272 273 274 279 284 284 281 278 276 273 273 274 273 276 279 272 263 258 255 258 261 261 261 259 257 257 256 256 258 260 262 263 264
320 318 317 318 318 317 317 320 321 324 332 341 345 351 359 3 7 6 359 356 353 347 342 333 328 326 329 335 338 344 347 344 339 333 330 329 329 326 320 322 323 319 314 307 304 300 293 286 281 279 279 283 285 283 282 284 284 286 289 288 290 292 294 295 286 279 272 267 275 277 260 256 256 254 258 261 262 262 262 262 261 260 260 260 262 264 265 265
319 318 319 319 317 318 319 321 323 332 347 356 1 13 19 16 13 7 360 1 -0 358 356 348 346 345 340 343 350 356 355 349 344 337 331 331 332 333 331 331 334 333 330 324 316 311 302 295 290 288 288 288 289 288 289 288 287 291 289 286 294 303 310 313 304 285 267 262 271 268 251 255 258 258 261 263 265 265 266 268 267 265 263 263 264 265 266 266
329 330 328 326 323 323 324 328 341 356 5 11 18 23 19 13 9 3 359 2 -0 359 0 357 357 351 344 351 358 360 357 347 340 336 332 334 335 333 332 331 332 333 333 333 330 325 317 313 309 302 298 296 300 301 296 291 291 293 289 290 300 306 312 313 302 280 266 261 264 254 245 253 257 263 268 268 268 268 268 269 268 267 266 266 267 267 268 268
343 344 343 342 339 342 351 1 9 12 15 21 21 17 10 6 6 3 359 360 359 1 0 357 356 352 354 8 357 350 350 343 339 343 343 340 339 334 333 333 331 332 332 332 335 337 338 338 327 314 305 299 307 311 305 298 297 297 295 294 289 291 305 312 305 294 284 265 251 242 241 251 256 264 270 272 273 273 270 269 269 271 272 272 272 271 270 270
0 4 6 9 12 13 14 15 16 18 19 16 10 6 1 357 1 3 1 2 5 9 6 1 360 1 9 359 348 344 348 348 347 349 348 344 345 343 340 340 336 335 338 336 338 347 349 344 328 319 308 295 295 303 307 304 296 289 292 292 280 280 294 302 304 302 290 262 247 244 243 247 254 262 269 273 276 276 272 271 272 274 276 276 274 272 272 271
15 17 14 14 14 11 13 17 19 18 11 4 356 353 351 349 355 360 2 12 20 19 15 9 6 8 357 349 350 350 351 353 351 346 344 346 348 347 345 343 338 336 337 333 332 336 342 340 332 333 328 317 314 309 304 301 298 292 292 295 290 288 292 297 301 299 282 256 247 246 245 247 254 262 267 271 275 275 273 273 275 277 277 277 277 275 273 271
12 10 8 9 11 13 16 13 9 4 355 349 341 341 344 343 348 356 6 18 25 22 21 15 10 7 356 351 353 349 347 352 348 343 345 346 347 349 347 343 337 333 332 339 346 342 341 342 337 338 338 324 314 307 299 296 298 297 295 296 295 294 294 294 296 292 277 257 247 248 251 253 257 263 268 271 273 273 274 276 279 282 283 280 278 276 271 267
10 11 12 13 12 10 5 356 350 345 338 334 331 333 336 338 346 360 10 14 22 27 27 22 13 6 355 350 350 346 346 350 348 349 353 351 352 353 348 343 341 339 344 354 357 345 337 339 341 341 337 319 306 301 298 293 293 295 295 294 293 293 294 296 295 281 270 262 254 254 257 255 254 258 263 267 269 272 275 280 286 287 286 281 275 271 267 262
20 16 13 9 3 354 346 337 333 329 327 328 327 329 333 338 348 360 7 10 32 30 26 20 11 4 355 352 351 351 355 357 358 2 4 4 5 2 356 355 355 356 1 6 356 338 335 346 352 346 335 322 311 299 294 293 293 293 293 291 290 293 294 299 298 274 267 266 263 264 261 253 249 252 256 260 265 270 277 284 290 289 284 278 271 265 261 259
22 14 6 357 347 339 332 327 327 326 328 330 331 336 338 343 349 351 358 18 45 31 21 13 7 3 1 360 -0 5 9 7 8 10 9 11 9 8 9 9 11 11 11 11 -0 348 354 13 357 342 334 325 313 301 300 305 308 304 300 298 297 299 294 292 288 276 277 277 274 273 265 253 249 251 254 260 267 274 282 287 288 288 283 273 263 256 252 250
19 9 358 346 341 338 333 334 336 333 335 336 338 341 342 345 347 349 356 23 63 32 18 13 10 7 7 10 12 13 9 6 9 9 9 10 8 10 13 14 16 16 12 8 5 11 22 6 343 334 331 325 314 308 311 318 324 328 329 321 306 296 290 292 289 286 288 286 283 277 262 251 250 252 255 263 274 281 286 287 285 282 271 258 250 245 244 243
13 4 355 346 348 347 342 344 346 344 344 342 342 345 348 348 348 347 352 79 85 25 14 13 13 11 9 13 13 11 7 7 10 9 10 11 8 8 9 10 11 10 10 9 12 26 17 354 342 339 337 331 323 321 329 333 334 335 332 325 308 288 286 293 294 295 291 282 281 274 255 247 248 252 259 266 277 285 284 279 269 258 250 248 245 239 241 244
8 3 359 355 356 356 351 349 352 353 348 347 350 353 354 349 347 344 348 128 67 15 11 10 12 13 11 10 8 7 10 11 11 10 11 12 10 9 6 5 8 8 9 12 20 19 2 354 351 352 347 337 335 340 346 341 334 333 332 328 316 298 294 294 293 296 290 278 278 270 247 246 247 246 256 265 278 283 274 258 236 235 241 240 240 241 243 246
10 7 4 1 359 -0 359 355 359 358 350 355 358 355 354 351 356 3 101 115 42 11 9 8 11 13 11 10 9 10 13 12 11 10 10 10 11 11 7 7 6 3 8 21 20 2 357 358 356 354 350 344 347 352 347 338 333 335 336 330 319 310 304 297 293 292 285 277 280 268 248 250 246 241 251 263 276 273 255 247 238 241 255 251 249 250 249 251
10 6 5 3 1 2 3 0 2 3 0 2 359 358 2 4 19 63 114 106 22 8 10 10 14 12 9 13 14 17 21 13 8 8 10 10 10 8 8 13 11 7 17 21 7 357 356 356 353 352 351 350 354 353 348 342 338 336 333 327 323 317 307 299 295 288 285 284 282 274 258 255 255 240 248 260 256 248 229 263 290 288 290 278 268 265 257 256
4 3 3 3 3 2 2 4 4 3 3 3 3 8 13 21 58 92 103 99 9 6 10 12 14 13 12 13 12 19 23 13 7 11 13 9 8 9 10 16 20 22 18 8 3 360 354 352 354 353 351 356 -0 356 350 343 337 332 329 328 324 318 306 299 295 289 293 289 279 277 252 240 275 219 220 241 223 205 170 341 333 320 315 310 300 295 281 279
360 1 1 2 2 0 3 9 6 4 3 3 8 17 30 50 90 102 87 70 5 7 9 11 15 17 18 15 12 18 19 11 9 14 13 9 10 11 13 23 28 21 6 5 11 4 354 355 356 350 351 357 356 353 348 339 335 330 326 325 322 319 311 306 301 294 299 278 278 288 244 214 238 136 192 228 230 235 302 341 334 323 320 320 315 318 318 317
355 359 -0 -0 359 359 3 5 3 3 4 6 14 27 48 57 91 110 72 18 1 5 6 10 15 18 19 18 19 20 18 13 11 12 14 14 15 15 18 29 30 19 10 14 17 8 3 6 2 355 355 352 347 349 347 342 339 333 329 329 329 333 330 319 318 323 328 283 299 323 233 219 236 204 221 251 260 279 319 330 324 320 324 326 323 327 326 324
350 356 359 357 357 360 360 1 3 6 9 13 23 40 62 57 66 98 70 8 359 4 8 14 16 16 15 16 23 21 17 15 11 9 14 15 12 12 18 18 11 9 11 15 16 14 15 17 16 7 354 348 346 348 351 352 351 346 341 342 343 351 359 351 359 33 26 296 20 32 350 292 289 216 232 253 271 296 318 320 317 317 324 326 324 325 324 323
345 353 356 354 356 358 0 7 11 15 18 19 29 44 71 68 60 67 48 6 2 7 14 18 14 15 16 16 21 21 17 15 12 9 12 14 11 12 18 17 10 8 6 8 11 15 20 27 24 4 352 355 354 352 360 9 9 1 357 359 1 4 13 11 5 10 311 290 347 346 332 323 330 237 219 241 272 292 310 317 309 310 319 321 320 321 321 320
341 350 351 354 358 2 10 16 14 16 16 20 39 46 73 80 62 51 39 31 27 18 19 20 12 11 16 17 20 20 15 11 13 13 10 12 14 16 21 19 15 14 8 5 8 12 19 29 12 358 357 4 359 357 6 13 13 12 11 17 26 31 24 358 313 337 326 307 323 327 322 309 314 286 200 227 273 284 303 309 297 303 311 316 319 321 321 320
343 346 348 357 5 11 17 12 8 11 17 35 53 69 88 83 75 63 50 45 36 25 21 21 15 11 16 21 20 17 14 10 11 11 7 8 11 15 18 15 13 14 10 7 12 14 12 3 356 358 7 6 357 359 3 3 10 15 16 23 22 20 29 251 290 324 287 299 316 323 322 283 282 276 230 247 274 279 298 301 294 302 311 319 324 324 323 322
343 346 352 2 11 16 12 6 9 15 33 52 63 90 97 90 86 76 56 47 40 30 22 18 19 19 24 27 21 14 14 14 10 6 8 12 11 10 12 11 9 10 10 10 18 18 2 352 356 3 12 2 352 354 354 357 8 10 9 13 6 355 323 277 299 309 298 299 313 327 343 311 281 275 268 266 277 282 294 300 301 310 317 323 326 324 323 320
345 351 1 9 11 10 8 17 25 31 49 62 73 83 89 92 87 76 57 47 44 31 22 18 19 24 28 28 23 16 16 17 11 10 14 12 9 10 11 9 6 6 10 12 19 17 0 0 14 16 7 353 349 350 353 0 7 8 10 8 359 347 342 337 316 315 325 320 299 324 344 326 297 281 278 270 277 284 289 299 306 315 321 323 324 322 320 318
351 4 14 11 10 13 24 36 40 50 59 62 83 84 87 90 80 72 59 50 46 30 25 30 24 20 21 22 19 17 19 20 16 19 21 10 6 11 11 8 3 2 9 17 20 12 354 357 22 21 355 346 351 352 353 359 4 12 14 3 356 356 18 7 335 315 353 10 272 290 305 311 293 281 286 278 281 290 295 305 310 316 320 321 322 320 319 320
10 19 14 13 26 37 41 43 50 61 59 53 80 86 87 86 76 69 60 50 45 30 27 36 31 20 18 19 17 14 16 21 20 21 22 10 5 8 8 6 2 1 9 18 19 11 352 350 18 16 355 350 4 352 345 357 6 16 14 2 8 29 341 349 344 305 350 338 285 294 310 313 290 281 294 295 300 309 310 313 313 315 318 320 322 322 323 325
28 24 22 36 49 50 48 48 49 53 50 59 81 87 85 82 75 66 59 50 42 32 29 33 31 23 19 18 17 15 14 18 20 20 17 9 5 4 4 4 4 5 10 15 16 13 -0 342 359 6 0 1 7 350 347 358 1 1 358 357 9 24 334 336 334 279 281 284 290 303 313 308 286 294 307 310 316 318 315 315 315 317 321 323 324 325 326 327
42 41 53 58 57 57 57 52 43 40 64 76 82 88 85 80 73 63 57 49 40 34 29 28 25 24 23 18 16 15 15 17 18 17 14 8 5 4 3 4 7 10 12 13 12 7 5 347 338 355 8 14 2 353 354 3 359 353 352 354 358 357 346 339 329 305 283 234 264 310 302 291 294 307 311 310 315 314 314 317 318 320 322 323 324 324 323 323
56 55 63 64 62 61 60 56 51 58 77 80 81 84 82 76 68 60 51 42 38 33 28 24 21 21 21 18 16 13 14 19 18 15 11 7 5 3 2 5 12 16 12 11 9 3 7 6 344 351 7 9 358 354 351 353 357 352 350 353 350 346 350 351 340 321 297 283 289 277 275 291 300 307 303 301 308 312 315 318 318 320 320 321 321 320 318 318
63 63 69 69 67 65 63 65 68 68 74 79 80 79 78 73 65 56 46 38 34 29 24 20 20 21 18 15 14 12 15 22 20 14 9 8 7 3 2 8 15 17 12 10 8 3 5 6 352 353 5 8 3 359 341 337 347 346 345 349 343 338 345 346 314 299 300 300 292 274 265 287 296 299 298 302 308 312 316 317 317 319 319 318 318 316 316 317
69 72 73 70 68 67 63 67 72 71 74 78 76 74 74 68 61 54 43 37 31 25 22 19 18 19 15 14 14 14 16 20 19 12 8 8 7 4 7 12 15 16 15 13 6 4 5 359 352 354 5 12 11 359 337 330 338 340 341 342 335 329 332 326 304 290 290 291 291 289 259 272 288 298 300 304 308 312 316 317 318 318 317 317 315 315 318 318
71 74 73 68 67 67 62 66 71 73 74 76 75 72 69 63 58 50 39 34 28 24 20 17 18 15 12 12 13 15 18 20 16 10 8 7 5 5 9 15 17 16 14 13 8 7 8 0 356 355 359 5 5 354 335 326 331 335 336 334 330 327 328 325 308 285 266 259 264 259 260 277 292 299 299 303 308 312 316 317 317 317 316 316 316 317 319 318
69 71 70 66 64 68 75 73 70 69 71 75 75 70 64 59 53 44 35 30 26 23 20 17 16 13 11 11 11 14 17 19 15 9 8 7 4 6 11 16 18 15 14 13 10 7 6 5 8 10 3 345 331 325 326 324 324 326 328 328 327 329 329 325 308 277 252 260 266 266 276 288 297 297 297 304 309 312 314 314 314 315 315 316 317 318 318 316
72 69 69 69 68 69 75 75 70 68 69 71 71 67 61 54 48 39 30 25 21 20 20 17 14 13 12 11 10 12 14 17 16 10 7 4 4 10 14 15 16 14 13 11 7 7 6 4 6 6 355 332 316 319 330 324 316 319 324 324 325 330 328 314 309 292 284 286 287 290 294 297 301 301 301 306 309 309 312 313 314 314 314 315 314 314 315 316
76 74 71 72 73 69 71 74 72 68 67 66 67 65 58 50 44 35 27 22 18 16 16 15 14 13 12 10 11 12 10 13 16 12 7 3 5 13 14 14 17 13 9 7 5 4 2 359 357 354 350 340 323 327 335 325 317 319 322 321 323 325 300 285 308 305 297 287 293 310 312 300 304 313 313 310 310 311 314 316 316 314 312 310 310 313 317 318
75 74 71 71 75 74 72 74 71 67 64 63 63 61 53 45 39 31 25 19 15 14 14 14 12 8 9 9 9 10 9 10 13 12 8 4 7 13 12 12 16 9 6 5 2 0 359 355 347 342 347 344 327 328 335 329 320 315 315 317 318 312 292 294 306 312 304 288 298 316 315 304 312 326 323 314 315 316 318 318 315 312 309 309 313 317 318 318
74 71 68 67 73 76 73 71 71 68 64 60 58 55 49 40 33 26 22 17 14 13 14 14 9 7 8 5 4 8 10 10 10 9 7 7 9 11 11 13 11 6 4 1 358 359 355 348 341 337 340 344 335 331 338 332 315 304 309 312 308 310 305 301 307 315 310 305 312 319 313 310 324 331 319 316 319 319 318 316 314 312 311 313 316 317 316 316
73 70 65 60 67 74 73 72 72 68 63 58 54 51 43 35 30 24 19 16 13 13 14 11 8 8 7 4 4 7 7 6 7 6 5 8 12 11 12 14 8 4 3 359 355 354 349 343 341 334 334 343 343 333 337 334 310 300 303 291 298 312 307 297 307 314 312 315 320 318 309 314 330 329 318 320 321 319 318 318 316 314 313 314 315 315 316 317
69 69 63 53 61 72 73 71 71 66 61 57 50 46 40 31 28 23 18 16 14 13 13 11 9 9 7 5 6 6 4 2 1 1 3 7 10 11 12 10 6 4 0 356 352 351 347 340 338 332 328 337 342 333 336 335 310 297 300 287 299 310 302 299 308 311 316 320 320 314 309 317 330 324 319 321 320 318 319 318 315 312 313 315 316 316 317 317
67 67 63 50 56 72 73 68 70 64 57 54 46 41 36 29 25 23 18 15 13 13 13 10 9 8 7 7 7 5 1 359 358 358 1 4 6 8 7 3 3 -0 357 356 351 350 347 337 337 333 320 328 338 334 333 333 309 298 319 309 306 307 301 299 299 305 318 322 317 311 311 319 326 322 320 321 320 319 318 316 314 314 315 317 317 317 317 316
Height
3141 3142 3142 3142 3143 3143 3144 3144 3145 3145 3145 3146 3146 3146 3147 3147 3147 3147 3147 3147 3147 3146 3146 3145 3145 3145 3144 3144 3144 3144 3143 3143 3143 3142 3142 3141 3141 3140 3140 3140 3140 3139 3139 3139 3139 3138 3138 3138 3137 3137 3137 3137 3137 3137 3137 3136 3137 3137 3137 3137 3136 3135 3136 3138 3138 3139 3138 3137 3137 3137 3137 3136 3136 3136 3134 3133 3132 3132 3132 3132 3132 3131 3131 3130 3130 3129 3129 3129
3142 3143 3143 3144 3144 3145 3145 3146 3146 3146 3147 3147 3147 3147 3147 3147 3147 3147 3147 3147 3146 3146 3145 3145 3144 3144 3143 3143 3143 3142 3142 3142 3141 3141 3141 3140 3139 3139 3139 3139 3138 3138 3137 3137 3137 3137 3137 3136 3136 3135 3135 3135 3135 3135 3135 3135 3135 3134 3134 3135 3134 3134 3136 3137 3137 3137 3137 3136 3135 3135 3135 3135 3134 3133 3132 3130 3129 3130 3130 3129 3129 3129 3128 3128 3127 3127 3127 3127
3143 3144 3144 3145 3145 3146 3146 3147 3147 3147 3147 3147 3147 3148 3148 3147 3147 3147 3147 3146 3146 3145 3145 3144 3144 3143 3143 3142 3142 3141 3141 3140 3140 3139 3139 3138 3138 3137 3137 3137 3136 3136 3136 3135 3135 3135 3135 3134 3134 3133 3133 3133 3133 3133 3133 3133 3133 3133 3132 3132 3132 3134 3135 3135 3135 3136 3136 3135 3133 3133 3133 3133 3132 3130 3130 3128 3128 3128 3127 3126 3126 3126 3126 3126 3125 3125 3124 3124
3144 3145 3145 3146 3146 3147 3147 3147 3148 3148 3148 3148 3148 3148 3148 3147 3147 3147 3146 3146 3145 3145 3144 3144 3143 3142 3142 3141 3141 3140 3139 3139 3138 3138 3137 3137 3136 3136 3135 3135 3135 3134 3134 3134 3133 3133 3133 3132 3132 3131 3130 3131 3131 3130 3130 3131 3131 3131 3130 3130 3131 3133 3133 3132 3133 3134 3134 3133 3132 3131 3130 3130 3130 3128 3127 3127 3126 3125 3124 3124 3124 3125 3125 3124 3123 3123 3122 3122
3146 3146 3146 3147 3147 3148 3148 3148 3148 3148 3148 3148 3148 3148 3147 3147 3147 3146 3146 3145 3145 3144 3143 3143 3142 3141 3140 3140 3139 3138 3137 3137 3137 3136 3136 3135 3134 3134 3134 3133 3133 3133 3133 3132 3132 3131 3131 3130 3130 3129 3128 3129 3129 3129 3129 3129 3129 3129 3128 3129 3130 3131 3130 3130 3131 3132 3132 3131 3131 3130 3128 3127 3128 3127 3126 3125 3124 3122 3121 3121 3122 3123 3122 3122 3121 3120 3119 3118
3146 3147 3147 3147 3148 3148 3148 3148 3148 3148 3148 3148 3148 3147 3147 3147 3146 3146 3145 3144 3143 3142 3142 3141 3140 3139 3138 3138 3137 3136 3136 3136 3135 3134 3134 3133 3133 3132 3132 3132 3131 3131 3131 3130 3130 3130 3129 3129 3128 3127 3127 3127 3128 3127 3128 3128 3128 3127 3127 3127 3128 3129 3129 3128 3129 3129 3129 3129 3129 3128 3126 3125 3124 3125 3124 3123 3122 3120 3119 3119 3119 3119 3119 3118 3117 3117 3116 3116
3147 3147 3147 3148 3148 3148 3148 3148 3148 3148 3148 3147 3147 3146 3146 3145 3145 3144 3143 3142 3142 3141 3140 3139 3138 3138 3137 3136 3135 3134 3134 3134 3133 3133 3132 3132 3131 3131 3130 3130 3129 3129 3129 3128 3128 3128 3127 3127 3126 3126 3125 3126 3126 3126 3127 3127 3127 3126 3126 3126 3127 3127 3127 3127 3127 3127 3126 3126 3126 3125 3123 3122 3121 3122 3122 3121 3120 3119 3118 3117 3116 3116 3116 3116 3115 3115 3114 3114
3147 3148 3148 3148 3148 3148 3148 3148 3148 3147 3147 3146 3146 3145 3144 3144 3143 3142 3141 3141 3140 3139 3138 3138 3137 3136 3135 3135 3134 3133 3132 3132 3132 3131 3131 3130 3130 3129 3128 3128 3128 3127 3127 3127 3126 3126 3126 3125 3125 3124 3124 3124 3124 3124 3124 3124 3125 3124 3124 3125 3125 3126 3125 3124 3124 3124 3124 3124 3124 3123 3121 3120 3119 3119 3119 3118 3118 3117 3116 3115 3114 3113 3114 3114 3114 3113 3113 3113
3148 3148 3148 3148 3148 3148 3148 3147 3147 3146 3145 3145 3144 3143 3143 3142 3141 3141 3140 3139 3138 3137 3137 3136 3135 3135 3134 3133 3133 3132 3131 3131 3130 3130 3129 3128 3128 3127 3127 3126 3126 3126 3125 3125 3125 3125 3124 3124 3123 3123 3123 3123 3123 3123 3123 3122 3123 3122 3122 3123 3123 3123 3122 3122 3122 3122 3122 3121 3121 3120 3118 3117 3117 3116 3116 3115 3115 3115 3114 3114 3113 3112 3112 3112 3112 3112 3111 3111
3148 3148 3148 3147 3147 3147 3147 3146 3146 3145 3144 3144 3143 3142 3141 3140 3140 3139 3138 3138 3137 3136 3135 3135 3134 3134 3133 3132 3132 3131 3130 3130 3129 3128 3127 3127 3126 3126 3125 3125 3125 3124 3124 3124 3123 3123 3123 3123 3122 3121 3121 3121 3121 3121 3121 3121 3121 3120 3120 3120 3121 3121 3120 3119 3119 3119 3119 3118 3118 3117 3116 3115 3114 3114 3113 3112 3112 3112 3112 3112 3112 3111 3111 3110 3110 3110 3110 3109
3147 3147 3147 3147 3147 3146 3146 3145 3144 3144 3143 3142 3141 3140 3140 3139 3138 3138 3137 3136 3136 3135 3134 3134 3133 3133 3132 3132 3131 3130 3130 3129 3128 3127 3126 3126 3125 3125 3124 3124 3123 3123 3123 3122 3122 3122 3121 3121 3121 3120 3120 3119 3119 3120 3120 3119 3119 3119 3118 3118 3119 3119 3118 3117 3117 3116 3117 3115 3114 3114 3113 3112 3112 3111 3110 3109 3109 3109 3110 3110 3110 3109 3109 3108 3108 3108 3108 3107
3146 3146 3146 3146 3145 3145 3144 3144 3143 3142 3141 3141 3140 3139 3138 3138 3137 3136 3136 3135 3134 3134 3133 3132 3132 3132 3131 3131 3130 3130 3129 3128 3127 3126 3126 3125 3125 3124 3123 3123 3122 3121 3121 3120 3120 3120 3119 3119 3119 3119 3118 3118 3118 3118 3118 3117 3117 3117 3116 3116 3116 3116 3115 3115 3114 3113 3114 3113 3112 3112 3112 3110 3109 3108 3107 3107 3106 3107 3107 3107 3107 3107 3106 3106 3106 3106 3105 3105
3145 3145 3145 3144 3144 3143 3143 3142 3142 3141 3140 3140 3139 3138 3138 3137 3136 3136 3135 3134 3133 3133 3132 3132 3131 3131 3130 3130 3130 3129 3129 3128 3127 3126 3125 3125 3124 3123 3122 3121 3121 3120 3120 3119 3119 3118 3118 3118 3117 3117 3117 3117 3117 3116 3116 3116 3115 3115 3115 3113 3113 3113 3112 3112 3111 3111 3111 3110 3110 3111 3110 3107 3106 3105 3105 3104 3104 3105 3105 3105 3105 3104 3104 3104 3104 3103 3103 3102
3145 3144 3144 3143 3142 3142 3141 3141 3141 3140 3140 3139 3138 3138 3137 3137 3136 3135 3134 3134 3133 3132 3132 3131 3131 3130 3130 3130 3129 3129 3128 3127 3127 3126 3125 3124 3123 3122 3121 3120 3120 3119 3118 3118 3118 3117 3117 3116 3116 3116 3116 3115 3115 3115 3114 3114 3114 3113 3113 3112 3111 3111 3110 3109 3109 3109 3109 3109 3108 3109 3107 3104 3103 3103 3103 3103 3103 3103 3103 3103 3102 3102 3102 3101 3101 3101 3100 3100
3143 3143 3142 3141 3141 3141 3140 3140 3140 3139 3139 3138 3138 3137 3137 3136 3136 3135 3134 3133 3133 3132 3131 3131 3130 3130 3130 3130 3129 3128 3128 3127 3126 3125 3124 3123 3122 3121 3120 3120 3119 3118 3117 3117 3116 3116 3115 3115 3115 3115 3114 3114 3114 3113 3113 3112 3112 3112 3111 3110 3110 3110 3109 3108 3108 3107 3108 3108 3107 3107 3104 3102 3101 3101 3100 3100 3101 3101 3101 3101 3100 3100 3100 3099 3099 3099 3098 3098
3142 3141 3141 3140 3140 3140 3140 3139 3139 3139 3138 3138 3138 3137 3137 3136 3136 3135 3134 3133 3132 3132 3131 3131 3130 3130 3129 3129 3129 3128 3127 3126 3125 3124 3123 3122 3121 3120 3119 3118 3118 3117 3116 3116 3115 3115 3114 3114 3114 3113 3113 3113 3112 3111 3111 3111 3110 3110 3109 3109 3109 3109 3108 3108 3107 3107 3107 3107 3105 3104 3102 3101 3100 3099 3098 3098 3098 3099 3099 3099 3099 3098 3098 3098 3097 3097 3097 3096
3141 3141 3140 3140 3140 3139 3139 3139 3139 3138 3138 3137 3137 3137 3136 3136 3135 3134 3134 3133 3132 3131 3131 3130 3130 3130 3129 3129 3128 3127 3126 3125 3123 3122 3121 3120 3120 3119 3118 3117 3116 3116 3115 3115 3114 3114 3114 3113 3113 3112 3111 3111 3110 3110 3109 3109 3109 3109 3108 3108 3108 3108 3107 3107 3106 3106 3106 3105 3103 3101 3101 3099 3098 3097 3096 3096 3096 3097 3097 3097 3097 3097 3097 3096 3096 3095 3095 3094
3141 3141 3140 3140 3140 3139 3139 3139 3138 3138 3137 3137 3137 3136 3136 3135 3134 3134 3133 3132 3132 3131 3131 3130 3130 3130 3129 3128 3127 3126 3125 3124 3122 3121 3120 3119 3118 3118 3117 3116 3115 3114 3114 3114 3113 3113 3112 3112 3111 3111 3111 3110 3110 3109 3109 3109 3108 3108 3108 3107 3107 3106 3106 3105 3104 3104 3103 3102 3100 3099 3099 3098 3096 3096 3095 3094 3094 3095 3095 3095 3095 3095 3095 3094 3094 3093 3093 3092
3141 3141 3140 3140 3140 3139 3139 3138 3138 3137 3137 3137 3136 3136 3135 3134 3134 3133 3133 3132 3132 3131 3131 3130 3129 3129 3128 3127 3126 3125 3124 3123 3122 3121 3120 3119 3118 3117 3116 3115 3114 3113 3113 3112 3112 3111 3111 3111 3110 3110 3110 3110 3110 3109 3109 3109 3108 3107 3106 3106 3105 3104 3103 3103 3103 3102 3101 3100 3099 3098 3098 3097 3095 3094 3093 3092 3092 3092 3092 3093 3093 3093 3093 3092 3092 3091 3091 3090
3141 3141 3140 3140 3140 3139 3139 3138 3138 3137 3137 3136 3136 3135 3135 3134 3133 3133 3132 3132 3132 3131 3131 3130 3129 3129 3128 3127 3126 3125 3124 3123 3121 3120 3119 3118 3117 3116 3115 3115 3113 3113 3112 3111 3111 3110 3110 3110 3110 3110 3110 3110 3109 3109 3108 3108 3107 3105 3104 3104 3103 3102 3101 3101 3101 3101 3100 3099 3097 3097 3096 3095 3093 3092 3091 3090 3090 3090 3090 3091 3091 3091 3091 3090 3090 3089 3088 3088
3141 3141 3140 3140 3140 3139 3139 3138 3137 3137 3136 3136 3135 3135 3134 3133 3133 3132 3132 3132 3132 3131 3131 3131 3130 3129 3128 3127 3126 3125 3124 3123 3121 3120 3119 3117 3116 3115 3115 3114 3112 3111 3111 3111 3110 3110 3109 3109 3109 3109 3109 3109 3108 3107 3106 3106 3105 3104 3103 3102 3101 3101 3100 3100 3100 3100 3099 3098 3096 3095 3095 3093 3092 3091 3089 3089 3088 3088 3088 3089 3089 3089 3089 3088 3088 3087 3087 3087
3141 3141 3140 3140 3140 3139 3138 3138 3137 3136 3135 3135 3134 3134 3133 3133 3132 3132 3132 3132 3131 3131 3131 3131 3130 3129 3128 3127 3126 3125 3124 3123 3121 3120 3118 3117 3116 3115 3114 3113 3112 3111 3111 3110 3110 3109 3109 3109 3109 3108 3108 3107 3106 3105 3104 3104 3103 3102 3101 3100 3100 3099 3099 3099 3099 3099 3098 3097 3095 3094 3093 3091 3090 3089 3088 3087 3086 3086 3087 3087 3088 3087 3087 3086 3086 3086 3086 3086
3141 3141 3140 3140 3139 3139 3138 3137 3136 3135 3135 3134 3133 3133 3132 3132 3131 3131 3131 3131 3131 3132 3132 3131 3130 3129 3128 3127 3125 3124 3123 3122 3120 3119 3117 3116 3115 3114 3113 3113 3112 3111 3110 3110 3109 3109 3108 3109 3108 3107 3106 3105 3104 3103 3103 3103 3102 3101 3100 3099 3099 3098 3098 3098 3098 3097 3096 3095 3093 3092 3091 3089 3089 3088 3087 3086 3086 3085 3085 3085 3086 3085 3085 3085 3084 3085 3085 3085
3141 3141 3141 3140 3139 3138 3137 3136 3136 3135 3134 3133 3133 3132 3131 3131 3131 3131 3131 3131 3132 3132 3131 3131 3130 3128 3127 3126 3125 3123 3122 3121 3119 3118 3117 3116 3115 3114 3113 3112 3111 3111 3110 3109 3109 3108 3108 3108 3107 3106 3105 3104 3103 3102 3102 3101 3101 3100 3099 3099 3098 3098 3097 3097 3096 3096 3094 3092 3091 3090 3089 3087 3087 3087 3086 3086 3086 3085 3084 3084 3084 3084 3084 3084 3084 3084 3084 3084
3142 3141 3140 3139 3139 3138 3137 3136 3135 3134 3134 3133 3132 3132 3131 3131 3130 3130 3130 3131 3132 3132 3131 3130 3130 3128 3127 3126 3124 3123 3122 3120 3119 3118 3117 3116 3115 3114 3113 3112 3111 3110 3109 3109 3108 3108 3108 3107 3106 3105 3104 3103 3102 3102 3101 3100 3100 3099 3098 3097 3097 3096 3096 3095 3095 3093 3092 3090 3088 3088 3088 3085 3084 3085 3085 3085 3085 3084 3083 3083 3083 3083 3083 3083 3083 3084 3084 3084
3142 3141 3140 3139 3138 3137 3136 3135 3135 3134 3133 3133 3132 3131 3131 3130 3130 3130 3130 3131 3132 3132 3131 3130 3129 3128 3127 3126 3124 3123 3122 3120 3119 3118 3117 3116 3115 3114 3113 3112 3111 3110 3109 3109 3109 3108 3107 3107 3105 3105 3104 3103 3102 3102 3101 3100 3098 3098 3097 3096 3096 3095 3094 3093 3092 3091 3089 3087 3086 3087 3087 3084 3083 3084 3084 3084 3084 3083 3083 3082 3082 3082 3083 3083 3083 3083 3083 3083
3142 3141 3140 3139 3138 3137 3136 3135 3134 3134 3133 3132 3132 3131 3131 3130 3130 3130 3130 3131 3132 3132 3131 3130 3129 3128 3127 3126 3125 3123 3122 3121 3120 3119 3117 3116 3115 3114 3113 3112 3111 3110 3109 3109 3109 3108 3107 3106 3105 3104 3104 3103 3102 3101 3101 3099 3098 3097 3096 3095 3094 3093 3091 3090 3089 3088 3086 3086 3085 3084 3084 3083 3082 3083 3083 3083 3083 3083 3082 3082 3082 3082 3082 3082 3082 3082 3082 3082
3142 3141 3140 3139 3138 3136 3136 3135 3134 3133 3132 3132 3131 3131 3130 3130 3129 3129 3129 3132 3134 3133 3132 3131 3130 3129 3127 3126 3125 3124 3123 3122 3121 3119 3118 3117 3116 3114 3113 3112 3111 3110 3110 3109 3108 3108 3107 3106 3105 3104 3104 3103 3102 3101 3100 3099 3097 3096 3095 3093 3092 3090 3088 3087 3086 3085 3085 3084 3082 3081 3082 3083 3082 3082 3082 3082 3082 3083 3083 3082 3082 3082 3082 3081 3081 3081 3081 3081
3142 3141 3139 3138 3137 3136 3135 3134 3134 3133 3132 3132 3131 3130 3130 3129 3130 3129 3130 3133 3135 3133 3132 3132 3131 3130 3129 3127 3126 3124 3123 3122 3120 3119 3119 3117 3115 3114 3113 3112 3111 3110 3110 3109 3108 3107 3106 3105 3104 3103 3103 3103 3102 3101 3100 3098 3097 3095 3093 3092 3090 3088 3086 3084 3083 3082 3083 3083 3080 3079 3080 3081 3081 3081 3081 3082 3082 3082 3083 3082 3082 3081 3081 3081 3081 3080 3080 3080
3142 3141 3139 3138 3137 3136 3135 3134 3133 3133 3132 3131 3131 3130 3130 3130 3130 3129 3131 3134 3135 3134 3133 3132 3131 3130 3129 3128 3126 3124 3123 3122 3121 3120 3119 3118 3116 3115 3114 3113 3112 3112 3110 3109 3108 3107 3105 3104 3104 3103 3103 3103 3102 3101 3100 3098 3096 3093 3091 3089 3088 3086 3084 3082 3081 3081 3082 3082 3080 3079 3080 3080 3081 3081 3081 3081 3081 3082 3082 3082 3081 3081 3081 3080 3080 3080 3080 3079
3141 3140 3139 3138 3137 3136 3135 3134 3133 3132 3132 3131 3131 3130 3130 3130 3129 3130 3134 3136 3135 3134 3134 3133 3132 3130 3129 3127 3126 3125 3123 3122 3121 3120 3119 3117 3115 3114 3112 3111 3110 3109 3108 3107 3107 3106 3104 3104 3104 3104 3103 3102 3101 3101 3099 3097 3094 3092 3091 3088 3086 3085 3083 3082 3082 3082 3083 3083 3081 3081 3081 3080 3080 3080 3080 3080 3080 3081 3081 3081 3081 3080 3080 3080 3079 3079 3079 3078
3141 3140 3139 3138 3136 3136 3135 3134 3133 3132 3131 3131 3130 3130 3130 3130 3130 3132 3135 3135 3135 3135 3134 3132 3132 3130 3129 3127 3126 3125 3123 3122 3120 3119 3117 3116 3114 3111 3110 3110 3108 3107 3106 3105 3105 3105 3105 3104 3104 3104 3103 3102 3100 3099 3098 3096 3094 3092 3090 3088 3086 3086 3086 3086 3085 3085 3085 3084 3082 3082 3082 3080 3080 3080 3080 3080 3080 3080 3080 3080 3080 3080 3079 3079 3079 3078 3078 3077
3141 3139 3138 3137 3136 3135 3134 3133 3133 3132 3131 3131 3130 3130 3130 3130 3133 3135 3136 3135 3135 3135 3134 3133 3131 3130 3129 3128 3126 3125 3123 3122 3120 3119 3117 3117 3115 3114 3113 3113 3111 3110 3109 3107 3106 3105 3104 3104 3104 3104 3103 3101 3099 3097 3096 3095 3094 3093 3091 3090 3089 3090 3092 3093 3090 3088 3087 3085 3083 3082 3081 3080 3080 3080 3080 3079 3079 3079 3079 3080 3079 3079 3079 3078 3078 3077 3077 3076
3140 3139 3138 3137 3136 3135 3134 3133 3132 3131 3131 3130 3130 3130 3130 3131 3135 3136 3136 3135 3135 3134 3134 3133 3132 3131 3129 3127 3126 3125 3123 3122 3120 3119 3118 3117 3116 3115 3114 3113 3112 3111 3110 3108 3107 3106 3105 3105 3104 3103 3102 3101 3100 3098 3097 3097 3095 3094 3093 3093 3092 3093 3096 3095 3092 3090 3089 3086 3083 3081 3080 3081 3081 3080 3080 3080 3079 3079 3079 3078 3078 3078 3078 3077 3077 3076 3075 3074
3140 3139 3138 3137 3136 3135 3134 3133 3132 3131 3131 3130 3130 3130 3131 3133 3136 3136 3136 3136 3135 3134 3134 3133 3132 3131 3129 3127 3126 3125 3123 3122 3121 3120 3119 3117 3116 3115 3114 3113 3112 3111 3109 3108 3108 3108 3107 3106 3105 3104 3103 3102 3100 3099 3098 3097 3096 3095 3095 3094 3093 3094 3095 3094 3092 3090 3089 3085 3083 3081 3081 3081 3080 3079 3079 3079 3078 3078 3078 3078 3077 3077 3076 3076 3075 3074 3072 3071
3140 3139 3138 3137 3136 3135 3134 3133 3132 3131 3131 3131 3131 3131 3132 3134 3136 3136 3136 3136 3135 3134 3134 3133 3132 3130 3129 3128 3127 3126 3124 3123 3121 3120 3119 3117 3117 3116 3115 3113 3112 3111 3110 3108 3108 3109 3108 3107 3106 3105 3104 3102 3101 3099 3098 3097 3096 3096 3095 3094 3094 3094 3093 3092 3091 3089 3088 3086 3084 3082 3081 3080 3079 3079 3078 3078 3078 3078 3077 3077 3076 3076 3075 3074 3073 3071 3070 3068
3139 3138 3138 3137 3136 3135 3134 3133 3132 3132 3132 3131 3131 3132 3133 3135 3136 3136 3136 3136 3135 3135 3134 3132 3131 3130 3129 3128 3127 3126 3124 3123 3122 3121 3119 3118 3118 3117 3116 3115 3113 3112 3111 3110 3109 3109 3109 3107 3105 3105 3104 3102 3101 3100 3099 3098 3097 3096 3095 3095 3095 3094 3093 3093 3092 3089 3089 3089 3085 3081 3081 3079 3079 3079 3078 3078 3078 3077 3077 3076 3075 3075 3074 3072 3071 3069 3067 3064
3139 3138 3138 3137 3136 3135 3134 3133 3133 3133 3132 3132 3132 3133 3135 3136 3136 3136 3136 3136 3135 3135 3134 3132 3132 3131 3130 3128 3127 3126 3124 3123 3122 3121 3120 3119 3118 3117 3117 3116 3114 3113 3112 3111 3110 3110 3109 3107 3105 3104 3103 3102 3101 3100 3099 3098 3098 3097 3097 3096 3095 3094 3094 3093 3093 3091 3091 3091 3086 3081 3080 3079 3078 3078 3077 3077 3077 3077 3076 3075 3074 3073 3072 3070 3067 3065 3062 3060
3139 3138 3138 3137 3136 3135 3135 3134 3133 3133 3133 3133 3133 3134 3136 3137 3137 3137 3136 3136 3136 3135 3134 3133 3132 3131 3130 3129 3127 3126 3124 3123 3122 3121 3121 3120 3119 3118 3117 3116 3115 3113 3112 3112 3111 3110 3109 3107 3106 3104 3103 3101 3100 3100 3099 3099 3098 3097 3097 3096 3095 3096 3095 3093 3093 3092 3091 3091 3088 3082 3079 3078 3078 3076 3076 3076 3075 3075 3074 3073 3072 3070 3068 3066 3063 3060 3058 3056
3139 3138 3138 3137 3136 3136 3135 3134 3134 3134 3134 3134 3134 3135 3136 3137 3137 3137 3137 3136 3136 3135 3134 3133 3132 3132 3130 3129 3127 3126 3125 3124 3123 3122 3121 3120 3119 3118 3117 3116 3115 3114 3112 3111 3111 3110 3109 3108 3106 3104 3103 3101 3100 3100 3099 3098 3098 3096 3095 3095 3094 3094 3094 3092 3091 3091 3091 3090 3089 3086 3080 3077 3076 3076 3075 3074 3073 3073 3072 3070 3068 3066 3064 3062 3059 3057 3055 3053
3139 3139 3138 3137 3137 3137 3135 3135 3136 3135 3134 3135 3135 3136 3137 3138 3138 3138 3137 3137 3136 3135 3134 3134 3133 3131 3130 3129 3128 3127 3125 3124 3123 3122 3121 3120 3119 3118 3117 3116 3115 3114 3113 3112 3111 3109 3108 3107 3106 3103 3102 3101 3100 3100 3099 3098 3098 3096 3095 3094 3094 3093 3092 3091 3090 3089 3090 3089 3088 3087 3082 3075 3074 3075 3073 3073 3072 3070 3069 3067 3066 3064 3062 3060 3057 3055 3053 3052
3140 3139 3138 3138 3138 3137 3136 3137 3137 3136 3135 3136 3137 3137 3138 3138 3138 3138 3138 3137 3136 3135 3135 3134 3132 3131 3130 3129 3128 3127 3125 3124 3123 3122 3121 3120 3119 3118 3117 3116 3115 3114 3112 3111 3110 3108 3107 3106 3105 3103 3102 3101 3100 3100 3099 3098 3097 3096 3095 3094 3093 3093 3092 3093 3092 3088 3088 3087 3086 3086 3081 3074 3073 3073 3071 3071 3070 3068 3067 3065 3063 3061 3059 3057 3055 3053 3051 3049
3141 3140 3139 3139 3138 3138 3138 3138 3138 3138 3137 3138 3138 3138 3139 3139 3139 3139 3138 3137 3137 3136 3135 3134 3132 3131 3130 3129 3128 3127 3125 3124 3123 3122 3121 3120 3119 3118 3117 3115 3114 3113 3112 3111 3109 3108 3106 3105 3104 3103 3102 3101 3101 3100 3099 3098 3097 3095 3094 3093 3093 3092 3091 3091 3090 3087 3087 3085 3084 3084 3080 3073 3071 3071 3069 3068 3067 3065 3064 3062 3060 3058 3056 3054 3052 3050 3048 3045
3141 3140 3140 3140 3139 3139 3140 3140 3139 3139 3139 3139 3139 3140 3140 3140 3139 3139 3139 3138 3137 3136 3134 3133 3132 3131 3130 3129 3128 3126 3125 3124 3123 3122 3121 3120 3119 3118 3116 3115 3114 3113 3112 3111 3110 3108 3106 3105 3104 3102 3101 3099 3098 3098 3098 3097 3096 3095 3093 3092 3091 3090 3089 3088 3086 3086 3085 3083 3082 3083 3078 3071 3070 3069 3067 3066 3064 3062 3061 3058 3056 3054 3052 3050 3048 3045 3043 3041
3142 3141 3141 3140 3140 3140 3141 3141 3140 3140 3140 3140 3140 3140 3140 3140 3140 3139 3139 3138 3137 3136 3134 3133 3132 3131 3130 3128 3127 3126 3125 3123 3123 3122 3121 3120 3119 3117 3116 3115 3114 3113 3112 3111 3110 3108 3107 3106 3104 3103 3102 3101 3099 3098 3097 3095 3094 3093 3092 3091 3089 3088 3087 3086 3085 3085 3084 3081 3081 3080 3074 3069 3069 3068 3065 3064 3062 3059 3058 3056 3053 3051 3049 3046 3044 3041 3039 3037
3143 3142 3142 3141 3142 3142 3141 3141 3142 3141 3141 3142 3141 3141 3141 3141 3140 3140 3139 3138 3137 3136 3134 3133 3132 3131 3130 3128 3127 3125 3124 3123 3122 3121 3120 3119 3118 3117 3116 3115 3114 3113 3112 3111 3109 3108 3107 3106 3104 3103 3103 3103 3101 3099 3097 3095 3093 3092 3091 3090 3088 3087 3085 3085 3084 3083 3082 3080 3077 3075 3072 3067 3066 3066 3065 3062 3060 3057 3055 3053 3050 3048 3045 3043 3041 3039 3037 3033
3144 3143 3143 3143 3143 3143 3142 3142 3143 3143 3143 3143 3142 3142 3142 3141 3140 3140 3139 3138 3136 3135 3134 3133 3132 3131 3129 3128 3127 3125 3124 3123 3122 3121 3120 3119 3118 3116 3115 3115 3114 3113 3112 3110 3109 3108 3107 3105 3104 3103 3102 3101 3099 3098 3097 3095 3092 3090 3089 3088 3086 3085 3084 3083 3083 3081 3080 3078 3074 3071 3071 3067 3062 3063 3062 3059 3057 3054 3051 3049 3046 3044 3042 3040 3038 3035 3031 3028
3145 3144 3144 3144 3144 3144 3144 3144 3144 3144 3144 3143 3143 3142 3142 3142 3141 3140 3139 3138 3136 3135 3134 3132 3131 3130 3128 3127 3126 3125 3124 3123 3122 3121 3120 3118 3117 3116 3115 3114 3113 3112 3111 3110 3108 3107 3106 3105 3103 3102 3101 3100 3098 3097 3095 3093 3090 3088 3087 3085 3084 3083 3082 3081 3081 3079 3078 3076 3071 3069 3068 3064 3060 3059 3058 3055 3052 3050 3047 3046 3043 3041 3039 3036 3033 3030 3026 3023
3146 3146 3145 3145 3145 3145 3145 3145 3145 3145 3145 3144 3144 3143 3143 3142 3141 3140 3139 3138 3136 3135 3133 3132 3131 3129 3128 3127 3126 3125 3124 3122 3121 3120 3119 3118 3117 3115 3114 3113 3113 3112 3110 3109 3107 3106 3105 3103 3102 3100 3099 3098 3096 3095 3093 3091 3088 3086 3084 3083 3082 3081 3080 3078 3078 3077 3075 3072 3069 3066 3063 3060 3057 3056 3053 3051 3049 3046 3044 3042 3040 3037 3034 3031 3028 3025 3022 3018
3148 3147 3147 3147 3146 3146 3146 3146 3146 3146 3146 3145 3144 3144 3143 3142 3141 3140 3139 3137 3136 3134 3133 3132 3131 3129 3128 3127 3125 3124 3123 3122 3121 3119 3118 3117 3116 3115 3114 3113 3112 3111 3109 3108 3107 3105 3104 3102 3101 3099 3097 3095 3094 3092 3091 3088 3085 3083 3082 3081 3080 3078 3077 3076 3075 3074 3072 3069 3066 3064 3059 3056 3055 3053 3050 3047 3045 3042 3040 3038 3035 3033 3030 3027 3024 3020 3017 3013
3149 3148 3148 3148 3148 3147 3147 3147 3147 3147 3146 3146 3145 3144 3143 3142 3141 3140 3138 3137 3136 3134 3133 3132 3130 3129 3128 3126 3125 3123 3122 3121 3120 3119 3117 3116 3115 3114 3113 3112 3111 3110 3109 3107 3106 3104 3103 3102 3100 3098 3095 3093 3092 3090 3088 3086 3083 3081 3080 3079 3078 3076 3074 3073 3072 3071 3069 3066 3063 3060 3056 3053 3052 3050 3046 3044 3042 3039 3036 3033 3030 3028 3026 3023 3019 3015 3011 3007
3150 3149 3149 3149 3149 3148 3148 3148 3148 3148 3147 3146 3145 3144 3143 3142 3141 3140 3138 3137 3135 3134 3132 3131 3130 3128 3127 3126 3124 3123 3121 3120 3119 3118 3117 3116 3115 3114 3112 3111 3110 3109 3108 3107 3105 3103 3102 3100 3099 3097 3094 3091 3090 3088 3085 3083 3081 3079 3078 3077 3076 3074 3072 3071 3070 3069 3068 3065 3060 3056 3053 3050 3049 3046 3043 3040 3038 3035 3032 3029 3026 3024 3021 3018 3013 3009 3006 3002